Three Rivers, MI

1:49 PM EST on November 23, 2017 (GMT -0500)
Three Rivers Municipal-Haines

Weather History for KHAI - April, 2013

Change the Weather History Date:

Friday, April 5, 2013

  Actual Average Record
Temperature  
Mean Temperature 42 °F -  
Max Temperature 50 °F 52 °F 71 °F (1955)
Min Temperature 33 °F 32 °F 3 °F (2006)
Degree Days  
Heating Degree Days 24    
Moisture  
Dew Point 21 °F    
Average Humidity 48    
Maximum Humidity 73    
Minimum Humidity 20    
Precipitation  
Precipitation 0.00 in - - ()
Sea Level Pressure  
Sea Level Pressure 30.10 in    
Wind  
Wind Speed 5 mph (North)    
Max Wind Speed 14 mph    
Max Gust Speed 22 mph    
Visibility 10 miles    
Events      
Averages and records for this station are not official NWS values.
T = Trace of Precipitation, MM = Missing Value Source: NWS Daily Summary

Daily Weather History Graph

Daily Weather History Graph

Search for Another Location

Airport or City:

Trip Planner

Search our weather history database for the weather conditions in past years. The results will help you decide how hot, cold, wet, or windy it might be!

Date:

Astronomy

Apr. 05, 2013 Rise Set
Actual Time 7:17 AM EDT 8:12 PM EDT
Civil Twilight 6:49 AM EDT 8:41 PM EDT
Nautical Twilight 6:15 AM EDT 9:14 PM EDT
Astronomical Twilight 5:40 AM EDT 9:50 PM EDT
Moon 4:29 AM EDT (4/5) 3:31 PM EDT (4/5)
Length of Visible Light 13h 51m
Length of Day
12h 54m
Waning Crescent, 24% of the Moon is Illuminated
Apr 5
Waning Crescent
Apr 10
New
Apr 18
First Quarter
Apr 25
Full
May 2
Last Quarter

Hourly Weather History & Observations

Time (EDT) Temp. Windchill Dew Point Humidity Pressure Visibility Wind Dir Wind Speed Gust Speed Precip Events Conditions
12:15 AM 43.5 °F - 24.4 °F 47% 29.95 in 10.0 mi Calm Calm - N/A   Overcast
12:34 AM 42.4 °F 40.7 °F 25.0 °F 50% 29.95 in 10.0 mi SSW 3.5 mph - N/A   Scattered Clouds
12:54 AM 40.6 °F 38.6 °F 25.2 °F 54% 29.95 in 10.0 mi SSW 3.5 mph - N/A   Clear
1:14 AM 39.7 °F - 23.4 °F 52% 29.95 in 10.0 mi Calm Calm - N/A   Clear
1:34 AM 38.7 °F - 23.0 °F 53% 29.95 in 10.0 mi Calm Calm - N/A   Clear
1:55 AM 37.0 °F - 23.0 °F 57% 29.96 in 10.0 mi Calm Calm - N/A   Clear
2:14 AM 36.1 °F - 23.5 °F 60% 29.96 in 10.0 mi Calm Calm - N/A   Clear
2:34 AM 38.3 °F 35.9 °F 23.7 °F 56% 29.95 in 10.0 mi NW 3.5 mph - N/A   Clear
2:55 AM 39.6 °F 37.4 °F 23.4 °F 52% 29.96 in 10.0 mi NW 3.5 mph - N/A   Clear
3:14 AM 41.0 °F 38.0 °F 23.7 °F 50% 29.96 in 10.0 mi NNW 4.6 mph - N/A   Scattered Clouds
3:35 AM 40.1 °F 36.9 °F 24.3 °F 53% 29.96 in 10.0 mi NNW 4.6 mph - N/A   Clear
3:55 AM 39.0 °F 36.8 °F 24.4 °F 56% 29.97 in 10.0 mi NW 3.5 mph - N/A   Clear
4:14 AM 39.6 °F 37.4 °F 25.0 °F 56% 29.97 in 10.0 mi NNW 3.5 mph - N/A   Clear
4:35 AM 37.2 °F - 24.8 °F 61% 29.98 in 10.0 mi Calm Calm - N/A   Clear
4:54 AM 36.0 °F 33.3 °F 25.3 °F 65% 30.00 in 10.0 mi NNW 3.5 mph - N/A   Clear
5:14 AM 37.4 °F - 25.9 °F 63% 30.01 in 10.0 mi Calm Calm - N/A   Clear
5:35 AM 36.9 °F 31.4 °F 25.9 °F 64% 30.02 in 10.0 mi North 6.9 mph - N/A   Clear
5:54 AM 36.3 °F 30.8 °F 26.4 °F 67% 30.03 in 10.0 mi NNE 6.9 mph - N/A   Clear
6:14 AM 35.6 °F 29.2 °F 27.0 °F 71% 30.04 in 10.0 mi NNE 8.1 mph - N/A   Clear
6:34 AM 35.2 °F 28.1 °F 27.0 °F 72% 30.06 in 10.0 mi NNE 9.2 mph - N/A   Clear
6:54 AM 34.7 °F 28.1 °F 26.6 °F 72% 30.07 in 10.0 mi NNE 8.1 mph - N/A   Clear
7:15 AM 34.0 °F 27.2 °F 26.2 °F 73% 30.09 in 10.0 mi NNE 8.1 mph - N/A   Clear
7:34 AM 33.8 °F 27.7 °F 25.7 °F 72% 30.10 in 10.0 mi NNE 6.9 mph - N/A   Clear
7:54 AM 34.2 °F 29.0 °F 25.7 °F 71% 30.11 in 10.0 mi NNE 5.8 mph - N/A   Clear
8:15 AM 34.7 °F 31.8 °F 25.5 °F 69% 30.12 in 10.0 mi NNE 3.5 mph - N/A   Clear
8:34 AM 35.6 °F 29.2 °F 25.7 °F 67% 30.13 in 10.0 mi NNE 8.1 mph - N/A   Clear
8:55 AM 36.5 °F 31.8 °F 26.6 °F 67% 30.13 in 10.0 mi NNE 5.8 mph - N/A   Clear
9:15 AM 37.4 °F 30.8 °F 24.4 °F 60% 30.14 in 10.0 mi NE 9.2 mph - N/A   Clear
9:34 AM 38.5 °F 31.6 °F 22.1 °F 52% 30.15 in 10.0 mi NE 10.4 mph - N/A   Clear
9:55 AM 39.6 °F 31.7 °F 20.3 °F 46% 30.15 in 10.0 mi NE 13.8 mph 17.3 mph N/A   Clear
10:14 AM 40.3 °F 34.9 °F 19.8 °F 44% 30.15 in 10.0 mi NNE 8.1 mph 17.3 mph N/A   Clear
10:35 AM 40.8 °F 34.1 °F 19.8 °F 43% 30.15 in 10.0 mi North 11.5 mph 17.3 mph N/A   Clear
10:55 AM 40.8 °F 34.5 °F 19.2 °F 42% 30.16 in 10.0 mi North 10.4 mph - N/A   Clear
11:14 AM 41.9 °F 35.9 °F 18.9 °F 40% 30.17 in 10.0 mi NNE 10.4 mph - N/A   Clear
11:35 AM 42.8 °F 37.5 °F 19.2 °F 39% 30.17 in 10.0 mi NNE 9.2 mph - N/A   Clear
11:55 AM 43.2 °F 37.9 °F 18.1 °F 37% 30.17 in 10.0 mi NNW 9.2 mph - N/A   Clear
12:14 PM 44.4 °F 40.0 °F 17.8 °F 34% 30.17 in 10.0 mi NNW 8.1 mph - N/A   Clear
12:35 PM 44.8 °F 39.4 °F 16.5 °F 32% 30.17 in 10.0 mi NE 10.4 mph - N/A   Clear
12:54 PM 46.0 °F 40.6 °F 16.0 °F 30% 30.16 in 10.0 mi NNE 11.5 mph 17.3 mph N/A   Clear
1:15 PM 46.6 °F - 15.4 °F 29% 30.16 in 10.0 mi North 6.9 mph 16.1 mph N/A   Clear
1:34 PM 46.9 °F - 13.6 °F 26% 30.15 in 10.0 mi NNE 9.2 mph - N/A   Clear
1:54 PM 48.6 °F - 13.5 °F 25% 30.15 in 10.0 mi NNW 10.4 mph 16.1 mph N/A   Clear
2:15 PM 47.5 °F - 12.9 °F 25% 30.14 in 10.0 mi NNW 9.2 mph - N/A   Clear
2:34 PM 48.6 °F - 13.3 °F 24% 30.14 in 10.0 mi WNW 9.2 mph - N/A   Clear
2:54 PM 48.7 °F - 12.4 °F 23% 30.13 in 10.0 mi NW 10.4 mph - N/A   Clear
3:15 PM 49.1 °F - 11.8 °F 22% 30.12 in 10.0 mi North 8.1 mph 17.3 mph N/A   Clear
3:34 PM 50.2 °F - 11.3 °F 21% 30.12 in 10.0 mi North 10.4 mph 16.1 mph N/A   Clear
3:55 PM 50.4 °F - 12.7 °F 22% 30.11 in 10.0 mi NNW 8.1 mph - N/A   Clear
4:15 PM 49.8 °F - 10.2 °F 20% 30.11 in 10.0 mi NE 3.5 mph - N/A   Clear
4:34 PM 50.7 °F - 10.0 °F 20% 30.11 in 10.0 mi NNW 8.1 mph - N/A   Clear
4:55 PM 49.8 °F - 10.9 °F 21% 30.10 in 10.0 mi North 8.1 mph - N/A   Clear
5:15 PM 49.3 °F - 10.4 °F 21% 30.10 in 10.0 mi North 8.1 mph - N/A   Clear
5:34 PM 49.6 °F - 12.7 °F 23% 30.10 in 10.0 mi NW 8.1 mph - N/A   Clear
5:55 PM 49.3 °F - 20.3 °F 32% 30.11 in 10.0 mi NW 11.5 mph - N/A   Clear
6:14 PM 48.4 °F - 19.8 °F 32% 30.12 in 10.0 mi NNW 10.4 mph 21.9 mph N/A   Clear
6:35 PM 47.3 °F - 20.7 °F 35% 30.12 in 10.0 mi NNW 11.5 mph - N/A   Clear
6:54 PM 45.7 °F 39.8 °F 20.7 °F 37% 30.13 in 10.0 mi NW 12.7 mph - N/A   Clear
7:15 PM 44.6 °F 38.8 °F 21.9 °F 41% 30.14 in 10.0 mi WNW 11.5 mph - N/A   Clear
7:35 PM 43.5 °F 38.3 °F 22.1 °F 43% 30.15 in 10.0 mi NW 9.2 mph - N/A   Clear
7:54 PM 42.3 °F 35.9 °F 22.3 °F 45% 30.15 in 10.0 mi NW 11.5 mph - N/A   Clear
8:15 PM 40.6 °F 36.0 °F 22.5 °F 48% 30.16 in 10.0 mi NW 6.9 mph - N/A   Clear
8:35 PM 39.7 °F 34.9 °F 22.1 °F 49% 30.16 in 10.0 mi NW 6.9 mph - N/A   Clear
8:54 PM 38.7 °F 35.2 °F 22.3 °F 52% 30.16 in 10.0 mi NW 4.6 mph - N/A   Clear
9:15 PM 37.4 °F 32.1 °F 22.3 °F 54% 30.17 in 10.0 mi NW 6.9 mph - N/A   Clear
9:34 PM 36.7 °F 32.0 °F 22.5 °F 56% 30.17 in 10.0 mi NW 5.8 mph - N/A   Clear
9:54 PM 36.5 °F 31.8 °F 23.0 °F 58% 30.19 in 10.0 mi NW 5.8 mph - N/A   Clear
10:15 PM 35.8 °F 30.9 °F 23.0 °F 60% 30.19 in 10.0 mi NNW 5.8 mph - N/A   Clear
10:34 PM 35.2 °F 32.4 °F 23.0 °F 61% 30.20 in 10.0 mi NNW 3.5 mph - N/A   Clear
10:54 PM 35.1 °F - 23.0 °F 61% 30.19 in 10.0 mi Calm Calm - N/A   Scattered Clouds
11:15 PM 34.7 °F - 22.8 °F 62% 30.17 in 10.0 mi Calm Calm - N/A   Mostly Cloudy
11:34 PM 34.3 °F - 23.2 °F 64% 30.17 in 10.0 mi Calm Calm - N/A   Mostly Cloudy
11:55 PM 33.8 °F - 22.6 °F 64% 30.16 in 10.0 mi Calm Calm - N/A   Mostly Cloudy